Theta_e
346 337 334 334 334 331 330 330 329 329 329 328 328 328 328 329 329 330 330 330 329 330 330 330 331 331 330 331 333 337 339 335 336 338 335 331 330 330 336 340 341 341 340
344 338 337 333 334 334 331 330 329 330 330 329 330 330 331 335 339 339 339 336 332 330 332 332 331 331 331 331 331 331 335 337 338 339 338 340 341 342 343 344 336 336 335
343 340 342 340 333 334 333 331 330 330 331 333 334 335 336 337 336 335 336 337 336 331 332 337 336 335 335 335 335 334 334 336 335 340 337 335 337 342 344 342 335 333 333
341 342 342 342 337 337 334 333 333 332 332 333 334 337 339 340 337 335 335 334 336 337 337 335 335 335 335 335 334 332 334 335 338 338 334 334 334 339 344 341 338 336 335
340 341 342 342 341 340 340 337 333 333 333 333 334 340 340 341 337 335 335 335 334 335 334 333 335 337 336 335 333 337 336 335 336 337 331 332 333 336 337 333 336 333 332
339 340 341 341 341 341 340 340 340 338 337 338 340 340 339 338 335 335 335 335 335 334 335 335 337 341 336 332 335 337 337 336 343 343 339 339 340 337 333 333 328 328 331
340 340 339 340 340 340 339 339 339 340 339 340 340 338 335 334 334 334 335 335 335 334 335 334 336 340 332 332 336 338 339 345 343 343 341 338 336 338 337 330 327 331 333
347 341 335 335 335 336 336 336 336 337 336 335 334 333 333 334 335 335 333 332 334 337 335 338 339 332 330 331 335 338 337 340 344 344 345 342 343 342 342 338 337 335 335
348 343 331 331 332 332 333 333 334 334 333 333 332 335 334 336 335 335 334 333 338 338 334 329 329 329 331 332 335 338 339 339 340 346 344 344 345 343 342 341 337 338 333
349 340 330 332 334 335 336 336 337 338 337 336 338 338 333 336 336 336 335 331 329 327 328 331 339 341 341 341 341 340 338 336 343 343 346 346 345 344 337 340 336 335 333
348 348 333 334 335 336 339 339 339 339 336 334 333 333 332 343 340 340 341 340 336 336 338 340 341 343 343 344 343 339 339 344 342 344 344 346 344 342 337 337 337 336 337
348 349 348 347 339 335 336 341 344 344 336 336 333 338 345 347 348 347 346 348 341 338 340 348 347 347 346 345 342 346 345 347 346 346 346 346 345 342 334 337 337 337 338
348 349 349 349 345 340 345 344 349 343 344 345 341 341 347 349 349 348 346 349 347 339 339 346 347 343 344 347 346 344 345 343 348 347 346 347 345 340 331 334 336 338 338
348 349 350 351 348 345 345 347 347 345 348 346 345 344 346 348 349 349 349 348 351 347 343 346 347 349 345 346 345 345 346 346 348 347 348 346 345 343 338 331 331 335 337
345 349 352 351 349 346 348 349 348 345 347 349 348 350 344 347 349 349 349 349 351 349 348 348 349 349 348 347 344 345 347 349 348 347 346 345 346 341 338 336 333 331 333
345 344 345 350 349 349 349 350 348 347 350 351 350 351 348 342 348 349 351 349 349 348 347 348 349 348 341 349 349 341 348 348 347 348 347 348 347 345 338 337 337 336 333
345 344 344 344 344 346 347 347 347 346 348 347 347 347 350 348 348 348 349 348 347 345 345 347 350 346 344 349 348 347 344 346 349 347 348 347 348 347 346 344 340 337 338
345 345 345 345 344 344 344 344 346 342 347 347 347 347 346 347 348 346 345 347 349 349 349 348 348 343 345 350 350 348 346 346 345 345 348 347 349 348 347 347 346 344 340
346 345 345 346 345 345 339 334 332 332 339 346 346 346 346 345 346 346 344 337 345 347 349 349 350 351 348 351 349 348 349 346 345 343 344 343 346 349 349 348 349 349 348
348 347 347 347 346 346 344 341 336 334 335 340 347 347 346 346 345 345 344 341 336 345 349 348 349 351 350 352 350 349 347 346 345 347 339 341 342 346 349 348 347 348 346
345 348 347 346 347 347 347 348 345 342 344 345 344 341 344 345 345 345 344 343 341 339 342 348 349 350 350 350 349 348 347 345 347 348 347 344 344 337 343 348 345 350 348
344 344 347 344 347 347 348 346 346 348 350 350 349 350 349 345 344 343 344 342 343 341 338 342 346 347 349 349 349 348 346 347 347 348 346 345 344 342 344 346 346 347 348
346 349 351 351 350 349 349 349 349 350 354 355 353 350 350 350 349 347 348 349 345 342 341 338 341 347 349 349 347 347 347 346 345 344 345 345 345 345 345 343 340 345 346
349 350 351 351 351 352 352 351 351 349 352 353 354 354 353 351 350 351 350 350 351 350 346 341 342 348 349 349 348 347 346 343 344 346 345 343 342 345 342 341 339 337 342
351 351 351 351 352 352 353 353 353 353 352 355 358 358 356 355 353 352 353 354 351 351 350 349 346 342 343 344 345 347 346 343 342 347 346 345 345 343 343 339 342 340 339
352 352 352 352 353 353 353 353 353 353 354 355 356 357 357 357 358 355 355 354 353 352 352 352 350 349 346 343 345 347 346 346 345 344 343 340 339 341 337 342 343 343 343
Wind_Speed
23 22 22 22 22 21 22 23 24 24 23 22 20 20 20 18 15 14 13 12 11 11 11 9 9 9 9 10 12 13 13 13 12 11 12 15 17 20 18 14 12 13 14
28 25 23 21 22 21 20 20 20 20 19 18 15 14 14 13 13 13 11 9 9 9 9 7 6 6 6 5 6 7 10 12 12 13 14 14 14 16 15 13 11 11 13
28 26 23 21 21 19 20 18 18 16 16 15 12 12 11 9 7 7 8 9 8 9 7 6 6 5 5 4 5 4 6 8 9 9 11 12 14 13 10 12 9 11 12
28 27 23 22 22 19 18 17 16 15 13 12 10 8 7 6 5 5 6 6 7 7 5 4 4 3 3 2 4 5 6 8 9 11 11 9 12 11 11 12 10 10 11
27 26 23 22 22 18 17 16 15 14 12 11 9 7 6 5 4 5 6 5 5 5 3 2 2 1 2 3 5 7 7 8 9 8 8 14 11 13 13 10 11 11 11
26 24 23 21 20 18 17 15 14 14 12 10 8 8 6 4 4 5 5 5 5 5 4 3 2 1 2 4 5 8 9 11 9 7 5 11 15 10 11 10 10 9 9
21 20 20 19 19 17 16 15 14 13 11 9 9 8 6 5 5 4 5 5 6 6 5 5 4 3 3 3 5 6 10 12 11 8 10 12 17 11 11 13 10 10 9
18 16 18 18 18 17 16 14 13 12 11 9 8 7 5 5 4 4 3 4 5 5 6 5 5 5 5 5 4 6 6 10 11 3 6 11 9 11 11 12 11 11 10
18 13 16 18 18 16 15 13 12 11 9 9 9 8 6 5 4 4 3 6 7 6 6 6 5 4 4 5 5 4 4 5 8 7 5 5 3 4 12 11 9 12 12
16 12 18 16 16 16 14 13 11 9 9 9 9 8 7 7 6 6 6 7 6 6 7 7 6 5 2 2 3 4 6 5 9 12 8 8 5 5 4 14 11 13 12
16 12 17 16 15 15 13 12 9 7 7 8 8 8 10 9 7 8 8 7 5 6 6 6 5 2 1 3 5 2 7 9 10 8 9 9 7 3 5 13 14 12 12
19 16 15 13 13 18 16 11 8 6 7 7 8 9 11 8 5 5 4 4 3 3 6 6 3 3 2 7 7 7 10 8 6 5 9 9 7 5 7 12 15 12 12
20 19 15 12 9 12 16 11 6 11 10 8 7 9 10 6 4 4 5 4 1 2 2 2 4 10 3 3 5 4 3 6 5 5 6 7 4 4 7 11 13 14 13
24 23 17 12 10 14 13 12 8 9 7 5 3 5 9 6 7 8 5 4 4 4 1 1 1 2 5 3 2 7 4 2 5 12 7 4 7 7 9 11 13 13 15
18 21 22 16 12 16 10 14 8 3 5 9 6 4 5 11 8 7 9 5 7 3 3 5 2 3 5 4 11 0 6 8 8 6 7 8 7 7 10 10 10 12 14
22 20 17 19 13 14 14 15 13 10 7 18 11 8 5 11 13 9 8 10 9 8 7 11 8 8 5 5 5 4 9 8 7 11 8 9 10 9 11 10 9 10 11
22 20 22 24 20 20 20 20 20 19 9 11 11 10 10 11 13 15 19 19 14 14 13 10 11 13 10 5 7 10 7 9 9 11 6 8 9 12 13 14 13 11 12
20 20 20 22 21 19 25 26 27 20 20 15 13 15 16 15 15 14 21 22 16 16 15 17 16 8 8 13 14 12 12 13 11 9 12 11 10 11 10 10 9 11 13
18 22 21 18 17 16 13 17 18 20 26 22 20 18 18 18 18 16 14 20 21 18 18 18 18 23 15 19 15 16 15 14 11 8 16 13 13 15 17 13 12 11 10
20 23 21 22 20 18 12 10 12 15 16 20 25 21 21 22 22 22 19 15 18 23 23 23 22 17 17 12 10 8 11 13 10 6 6 17 24 19 19 21 19 16 14
22 23 21 20 21 21 20 17 16 15 14 14 14 17 20 22 22 23 22 18 16 24 25 26 26 25 24 23 20 17 18 13 15 17 14 19 20 20 28 25 18 26 19
24 21 22 22 24 26 23 19 18 13 11 10 10 13 15 20 24 25 25 25 22 20 24 29 29 31 30 28 24 23 21 19 21 18 20 21 25 19 17 18 24 20 21
27 26 24 22 22 25 24 22 21 17 17 17 19 21 20 22 26 27 26 25 26 25 25 26 27 33 34 32 31 25 14 20 20 19 18 14 25 21 24 25 30 22 26
30 29 28 25 24 22 23 25 26 25 26 26 26 23 22 25 27 27 28 29 28 27 27 28 29 30 29 32 33 34 32 30 24 17 16 19 18 17 22 18 21 29 30
33 33 32 30 28 26 26 26 24 26 25 22 19 18 20 22 25 28 28 29 33 34 33 33 31 35 37 35 34 34 33 29 29 29 28 26 22 22 23 24 21 24 25
31 32 34 34 30 28 28 28 27 24 23 25 27 28 27 25 23 25 26 28 30 33 33 32 34 37 36 40 36 35 34 33 33 30 34 36 34 34 29 21 24 21 23
Wind_Direction
167 158 148 143 137 134 135 133 130 130 133 134 131 128 126 125 125 127 127 127 126 129 128 124 116 109 105 101 104 108 109 113 116 115 122 129 140 135 133 122 117 115 110
157 158 149 147 144 142 138 139 136 136 138 135 134 128 122 120 118 115 113 126 132 138 128 120 111 108 104 104 99 108 116 122 129 133 137 140 136 133 140 129 131 123 116
156 157 156 155 150 148 146 144 144 146 143 139 135 128 125 129 126 121 116 116 130 140 135 122 116 113 102 95 93 98 116 132 145 138 141 144 150 148 159 146 143 126 116
153 155 152 154 152 152 149 151 156 159 158 154 155 146 140 137 156 156 159 150 140 139 142 135 125 136 133 109 91 94 111 141 169 157 149 161 158 146 145 151 151 134 118
151 155 152 150 153 151 153 158 159 164 170 168 171 171 161 153 166 163 160 171 173 174 177 187 139 113 112 122 114 110 121 155 168 174 129 173 161 156 147 164 152 147 130
150 153 153 150 151 155 159 162 167 166 175 172 177 183 171 167 181 186 184 195 207 205 209 223 187 141 124 130 123 118 116 128 133 138 182 190 170 155 156 183 173 153 139
144 150 154 154 157 158 160 164 168 171 176 178 183 186 184 191 199 200 200 206 215 211 203 207 192 174 157 152 137 122 140 134 126 148 147 189 177 167 165 189 177 166 161
144 152 162 162 162 162 164 166 167 171 174 181 187 186 196 192 179 181 206 207 192 182 170 172 179 171 162 156 142 134 120 154 135 157 155 148 161 167 183 190 180 180 175
162 162 171 166 166 166 166 169 172 173 181 192 192 183 178 169 155 153 135 153 152 153 149 154 149 143 131 132 143 159 169 171 193 196 183 148 131 157 205 201 198 192 187
164 163 173 173 173 169 168 174 174 179 184 185 185 179 157 161 153 142 120 106 120 129 148 134 116 92 90 128 143 176 188 181 142 163 200 184 183 209 206 188 186 185 190
164 148 160 170 181 175 165 162 169 190 195 188 180 162 154 140 144 135 112 92 95 122 122 102 75 62 196 124 313 185 165 145 154 160 186 191 199 231 201 190 191 196 199
176 173 171 168 171 181 166 167 181 190 187 184 166 148 151 164 160 156 110 88 98 132 134 79 64 349 29 84 112 143 126 140 174 207 159 191 199 250 208 209 212 208 197
191 180 186 174 160 166 169 172 185 161 150 145 151 168 163 173 172 188 192 179 127 181 184 235 3 27 14 98 112 131 129 155 173 208 177 179 215 253 221 218 218 209 203
179 189 195 190 169 172 180 199 189 178 179 191 177 153 206 188 223 229 251 255 220 47 148 201 345 274 354 165 211 132 141 274 280 239 216 269 284 259 227 221 216 212 208
186 187 191 193 172 166 171 189 188 207 204 223 237 211 201 209 199 230 247 248 225 257 311 309 301 284 304 282 53 175 230 257 266 254 216 261 266 274 241 224 221 219 217
185 184 190 180 164 170 179 197 182 204 259 236 226 235 210 190 184 198 219 235 231 249 259 266 276 279 315 266 257 114 212 225 225 244 231 248 268 270 247 237 234 228 225
182 178 194 195 206 198 194 199 211 209 184 226 241 234 235 213 225 221 219 225 230 219 227 253 249 281 273 245 233 252 237 220 206 227 242 263 269 278 264 259 254 251 244
182 186 198 204 215 228 229 227 229 218 201 203 225 244 247 244 249 256 236 231 222 215 233 249 252 260 277 266 247 261 263 225 212 219 212 232 241 265 266 259 252 252 246
194 194 198 209 221 230 225 221 219 213 212 212 218 231 248 252 258 265 270 240 226 220 223 237 247 256 271 260 263 255 242 252 265 252 233 234 228 238 261 260 255 252 253
192 199 204 208 220 228 227 220 214 213 216 216 220 220 230 248 257 263 271 263 234 220 226 228 237 251 254 260 253 258 273 271 297 296 309 248 243 234 234 248 249 244 250
196 203 208 210 211 220 227 227 226 223 219 224 220 225 223 237 250 258 267 268 257 239 232 229 232 241 248 254 254 259 279 273 284 269 270 272 230 268 238 237 242 245 238
205 213 216 216 210 217 227 232 236 239 241 249 250 245 238 236 250 258 265 270 270 264 247 240 238 241 246 251 259 265 260 260 265 261 269 259 240 252 235 240 240 246 225
216 223 224 225 222 224 231 236 241 243 245 244 248 254 255 254 251 256 267 276 273 264 263 254 246 246 251 255 257 255 255 251 265 264 251 249 244 250 224 244 260 247 248
214 226 232 236 236 239 235 233 236 234 232 235 238 241 247 253 257 260 263 267 273 272 269 263 254 250 251 255 255 254 252 259 259 247 247 260 260 242 228 250 260 253 257
206 218 228 234 241 244 243 242 242 242 243 245 244 248 254 260 262 265 269 274 271 270 273 270 262 253 254 257 258 258 253 252 251 252 260 252 252 249 247 261 239 244 246
210 215 225 230 230 238 242 243 240 240 241 240 241 242 246 251 257 261 268 272 275 276 271 273 272 265 257 253 256 258 258 255 250 248 247 255 258 257 264 250 239 243 236